| time (UTC) | temp C | wind direction | speed KPH | gust KPH | rain 1hr cm | rain 24hr cm | rain mn cm | humidity % | barometer mb |
| 20260504214507 | 12 | 226 | 30.6 | 43.5 | 0.00 | 0.00 | 0.00 | 1 | 1011.9 |
| 20260504213012 | 12 | 217 | 30.6 | 43.5 | 0.00 | 0.00 | 0.00 | 1 | 1011.9 |
| 20260504211601 | 12 | 205 | 32.2 | 40.2 | 0.00 | 0.00 | 0.00 | 1 | 1012.0 |
| 20260504210059 | 12 | 209 | 30.6 | 43.5 | 0.00 | 0.00 | 0.00 | 1 | 1012.0 |
| 20260504204551 | 12 | 215 | 33.8 | 43.5 | 0.00 | 0.00 | 0.00 | 1 | 1012.0 |
| 20260504203059 | 12 | 212 | 30.6 | 40.2 | 0.00 | 0.00 | 0.00 | 1 | 1012.0 |
| 20260504201542 | 12 | 197 | 30.6 | 41.8 | 0.00 | 0.00 | 0.00 | 1 | 1012.0 |
| 20260504200037 | 12 | 220 | 37.0 | 46.7 | 0.00 | 0.00 | 0.00 | 1 | 1012.2 |
| 20260504194533 | 12 | 217 | 37.0 | 46.7 | 0.00 | 0.00 | 0.00 | 1 | 1012.3 |
| 20260504193028 | 12 | 215 | 33.8 | 49.9 | 0.00 | 0.00 | 0.00 | 1 | 1012.3 |
| 20260504191524 | 12 | 211 | 35.4 | 45.1 | 0.00 | 0.00 | 0.00 | 1 | 1012.3 |
| 20260504190017 | 12 | 254 | 35.4 | 45.1 | 0.00 | 0.00 | 0.00 | 1 | 1012.5 |
| 20260504184514 | 12 | 232 | 38.6 | 46.7 | 0.00 | 0.00 | 0.00 | 1 | 1012.7 |
| 20260504183009 | 12 | 232 | 38.6 | 46.7 | 0.00 | 0.00 | 0.00 | 1 | 1012.8 |
| 20260504181511 | 12 | 235 | 37.0 | 45.1 | 0.00 | 0.00 | 0.00 | 1 | 1013.0 |
| 20260504180059 | 12 | 212 | 33.8 | 43.5 | 0.00 | 0.00 | 0.00 | 1 | 1013.2 |
| 20260504174606 | 12 | 225 | 38.6 | 43.5 | 0.00 | 0.00 | 0.00 | 1 | 1013.3 |
| 20260504173050 | 12 | 234 | 35.4 | 43.5 | 0.00 | 0.00 | 0.00 | 1 | 1013.4 |
| 20260504171549 | 12 | 233 | 30.6 | 38.6 | 0.00 | 0.00 | 0.00 | 1 | 1013.6 |
| 20260504081507 | 11 | 251 | 25.7 | 33.8 | 0.00 | 0.00 | 0.00 | 1 | 1014.3 |
| 20260504050009 | 12 | 254 | 20.9 | 27.4 | 0.00 | 0.00 | 0.00 | 1 | 1013.5 |
| 20260504044512 | 12 | 258 | 20.9 | 27.4 | 0.00 | 0.00 | 0.00 | 1 | 1013.6 |
| 20260504043003 | 12 | 250 | 19.3 | 22.5 | 0.00 | 0.00 | 0.00 | 1 | 1013.5 |
| 20260504041558 | 12 | 250 | 16.1 | 20.9 | 0.00 | 0.00 | 0.00 | 1 | 1013.4 |
| 20260504040106 | 12 | 259 | 16.1 | 25.7 | 0.00 | 0.00 | 0.00 | 1 | 1013.5 |
| 20260504034610 | 12 | 255 | 19.3 | 25.7 | 0.00 | 0.00 | 0.00 | 1 | 1013.4 |
| 20260504033047 | 12 | 254 | 19.3 | 24.1 | 0.00 | 0.00 | 0.00 | 1 | 1013.2 |
| 20260504031545 | 12 | 262 | 17.7 | 22.5 | 0.00 | 0.00 | 0.00 | 1 | 1013.2 |
| 20260504024546 | 12 | 248 | 14.5 | 17.7 | 0.00 | 0.00 | 0.00 | 1 | 1013.3 |
| 20260504023039 | 11 | 265 | 4.8 | 8.0 | 0.00 | 0.00 | 0.00 | 1 | 1013.2 |
| 20260504021534 | 11 | 263 | 3.2 | 6.4 | 0.00 | 0.00 | 0.00 | 1 | 1013.1 |
| 20260504020031 | 11 | 293 | 3.2 | 6.4 | 0.00 | 0.00 | 0.00 | 1 | 1013.1 |
| 20260504014525 | 11 | 281 | 3.2 | 6.4 | 0.00 | 0.00 | 0.00 | 1 | 1013.0 |
| 20260504013028 | 11 | 271 | 3.2 | 6.4 | 0.00 | 0.00 | 0.00 | 1 | 1012.9 |
| 20260504011515 | 12 | 277 | 3.2 | 6.4 | 0.00 | 0.00 | 0.00 | 1 | 1012.8 |
| 20260504010011 | 12 | 276 | 3.2 | 6.4 | 0.00 | 0.00 | 0.00 | 1 | 1012.5 |
| 20260504004507 | 12 | 264 | 4.8 | 6.4 | 0.00 | 0.00 | 0.00 | 1 | 1012.4 |
| 20260504003002 | 12 | 266 | 3.2 | 6.4 | 0.00 | 0.00 | 0.00 | 1 | 1012.1 |
| 20260504001607 | 13 | 268 | 4.8 | 8.0 | 0.00 | 0.00 | 0.00 | 1 | 1012.0 |
| 20260504000057 | 13 | 283 | 4.8 | 11.3 | 0.00 | 0.00 | 0.00 | 1 | 1011.8 |
| 20260503234550 | 13 | 282 | 6.4 | 16.1 | 0.00 | 0.00 | 0.00 | 1 | 1011.6 |
| 20260503233049 | 13 | 304 | 6.4 | 17.7 | 0.00 | 0.00 | 0.00 | 1 | 1011.3 |
| 20260503231552 | 14 | 298 | 12.9 | 32.2 | 0.00 | 0.00 | 0.00 | 1 | 1011.2 |
| 20260503230047 | 14 | 293 | 6.4 | 22.5 | 0.00 | 0.00 | 0.00 | 1 | 1011.2 |
| 20260503224548 | 14 | 286 | 9.7 | 29.0 | 0.00 | 0.00 | 0.00 | 1 | 1011.1 |
| 20260503223046 | 14 | 323 | 6.4 | 30.6 | 0.00 | 0.00 | 0.00 | 1 | 1011.0 |
| 20260503221545 | 14 | 36 | 9.7 | 33.8 | 0.00 | 0.00 | 0.00 | 1 | 1010.9 |
| 20260503220039 | 14 | 330 | 14.5 | 27.4 | 0.00 | 0.00 | 0.00 | 1 | 1011.0 |